Location: Albany
(35.0000°S, 118.0000°E)
Time: 16:38:43
(UTC-05:00)

ISS - All Passes

Search period start: 19 December 2014 00:00
Search period end: 29 December 2014 00:00
Orbit: 404 x 415 km, 51.6° (Epoch: 19 December)

Date Brightness Start Highest point End Pass type
(mag) Time Alt. Az. Time Alt. Az. Time Alt. Az.
19 Dec - 12:20:42 10° NNW 12:23:54 47° NE 12:27:08 10° ESE visible
19 Dec - 13:58:17 10° WSW 14:00:40 18° SSW 14:03:05 10° SSE visible
19 Dec - 18:52:07 10° SSW 18:54:29 17° SSE 18:56:50 10° ESE daylight
19 Dec - 20:27:59 10° WSW 20:31:17 52° NW 20:34:33 10° NNE daylight
20 Dec - 11:30:37 10° N 11:33:18 23° NE 11:36:01 10° ESE visible
20 Dec - 13:06:49 10° W 13:09:47 29° SW 13:12:46 10° SSE visible
20 Dec - 18:02:11 10° S 18:03:29 12° SSE 18:04:47 10° SE daylight
20 Dec - 19:37:12 10° SW 19:40:35 74° SE 19:43:56 10° NE daylight
21 Dec - 10:41:32 10° NNE 10:42:43 12° NE 10:43:55 10° ENE night (unlit)
21 Dec - 12:15:40 10° WNW 12:18:55 53° SW 12:22:13 10° SE visible
21 Dec - 18:46:33 10° SSW 18:49:45 37° SE 18:52:54 10° ENE daylight
21 Dec - 20:23:47 10° W 20:26:06 17° NW 20:28:24 10° N daylight
22 Dec - 11:24:48 10° NW 11:28:05 73° NE 11:31:26 10° SE visible
22 Dec - 13:03:05 10° WSW 13:05:01 14° SSW 13:06:57 10° S visible
22 Dec - 17:56:03 10° SSW 17:58:46 22° SSE 18:01:28 10° E daylight
22 Dec - 19:32:18 10° WSW 19:35:24 34° NW 19:38:29 10° NNE daylight
23 Dec - 10:34:17 10° NNW 10:37:17 33° NE 10:40:20 10° ESE night (unlit)
23 Dec - 12:11:14 10° W 12:13:55 22° SSW 12:16:37 10° SSE visible
23 Dec - 17:05:43 10° S 17:07:39 14° SSE 17:09:35 10° ESE daylight
23 Dec - 18:41:12 10° SW 18:44:35 75° NW 18:47:55 10° NE daylight
24 Dec - 09:44:20 10° N 09:46:31 17° NE 09:48:43 10° E night (unlit)
24 Dec - 11:19:43 10° WNW 11:22:51 38° SW 11:26:00 10° SSE visible
24 Dec - 17:50:19 10° SW 17:53:37 52° SE 17:56:54 10° ENE daylight
24 Dec - 19:28:26 10° WNW 19:29:50 12° NW 19:31:13 10° NNW daylight
25 Dec - 10:28:31 10° NW 10:31:49 77° SW 10:35:10 10° SE visible
25 Dec - 12:07:36 10° SW 12:08:53 12° SSW 12:10:10 10° S visible
25 Dec - 16:59:33 10° SSW 17:02:32 28° SE 17:05:29 10° E daylight
25 Dec - 18:36:14 10° WSW 18:39:00 24° NW 18:41:46 10° N daylight
26 Dec - 09:37:37 10° NNW 09:40:49 49° NE 09:44:03 10° ESE night (unlit)
26 Dec - 11:15:14 10° WSW 11:17:34 18° SSW 11:19:56 10° SSE visible
26 Dec - 16:08:56 10° SSW 16:11:18 18° SSE 16:13:39 10° ESE daylight
26 Dec - 17:44:47 10° WSW 17:48:04 50° NW 17:51:18 10° NNE daylight
27 Dec - 08:47:09 10° N 08:49:51 23° NE 08:52:34 10° ESE night (unlit)
27 Dec - 10:23:23 10° W 10:26:18 28° SW 10:29:16 10° SSE visible
27 Dec - 15:18:39 10° S 15:19:56 12° SSE 15:21:13 10° SE visible
27 Dec - 16:53:37 10° SW 16:57:00 75° SE 17:00:20 10° NE daylight
28 Dec - 07:57:41 10° NNE 07:58:54 12° NE 08:00:07 10° ENE night (unlit)
28 Dec - 09:31:50 10° WNW 09:35:04 53° SW 09:38:21 10° SE visible
28 Dec - 16:02:37 10° SSW 16:05:47 37° SE 16:08:55 10° ENE daylight
28 Dec - 17:39:50 10° W 17:42:06 17° NW 17:44:22 10° N daylight
